Regional Weather Roundup
Issued by NWS

Home | Current Version | Previous Version | Graphics & Text | Print | Product List | Glossary On
Versions: 1 2 3 4 5 6 7 8 9 10 11 12 13 14 15 16 17 18 19 20 21 22 23 24 25 26 27 28 29 30 31 32 33 34 35 36 37 38 39 40 41 42 43 44 45 46 47 48 49 50
000
ASUS43 KFSD 202002
RWRSD

WEATHER ROUNDUP FOR SOUTH DAKOTA
NATIONAL WEATHER SERVICE SIOUX FALLS SD
300 PM CDT WED AUG 20 2014

NOTE: "FAIR" INDICATES FEW OR NO CLOUDS BELOW 12,000 FEET WITH NO
SIGNIFICANT WEATHER AND/OR OBSTRUCTIONS TO VISIBILITY.


SDZ001>005-009-010-012>017-202100-
NORTHWEST AND NORTH CENTRAL SOUTH DAKOTA

CITY           SKY/WX    TMP DP  RH WIND       PRES   REMARKS
BUFFALO          N/A     84  58  40 NW12      29.66S
FAITH            N/A     83  64  52 S15       29.70R
MOBRIDGE       CLOUDY    80  68  66 SE14      29.68F
$$

SDZ012>016-024>037-041>051-057-063-072>074-202100-
SOUTHWEST AND SOUTH CENTRAL SOUTH DAKOTA

CITY           SKY/WX    TMP DP  RH WIND       PRES   REMARKS
RAPID CTY ARPT MOSUNNY   86  59  39 SE10      29.73F
PIERRE         CLOUDY    83  70  64 SE9       29.68S
CUSTER         MOSUNNY   79  48  33 W9G21     29.89S
ELLSWORTH AFB  MOSUNNY   87  57  36 S8        29.74S
PHILIP         SUNNY     91  58  32 VRB7      29.68F
PINE RIDGE     SUNNY     88  56  33 NE5       29.76F
WINNER         FAIR      87  70  56 S13       29.71F
$$

SDZ004>011-016>023-039-040-202100-
NORTHEAST SOUTH DAKOTA

CITY           SKY/WX    TMP DP  RH WIND       PRES   REMARKS
ABERDEEN       PTSUNNY   83  67  58 S12       29.74S
WATERTOWN      MOSUNNY   81  65  58 SE9       29.78F
SISSETON         N/A     83  67  58 S16G22    29.77S
$$

SDZ017-020-022-023-036>040-048>070-202100-
SOUTHEAST SOUTH DAKOTA

CITY           SKY/WX    TMP DP  RH WIND       PRES   REMARKS
SIOUX FALLS    MOSUNNY   83  68  60 S18G24    29.79R
HURON          CLOUDY    81  66  60 SE12      29.72F
CHAMBERLAIN    CLOUDY    83  72  68 SE10      29.71S
MITCHELL       PTSUNNY   83  69  62 SE13      29.73F
YANKTON        PTSUNNY   73  72  94 SE13G18   29.77S
$$

ABBREVIATIONS USED IN REMARKS
   TC - TEMPERATURE IN CELSIUS
  WCI - WIND CHILL INDEX
   HX - HEAT INDEX
  VSB - VISIBILITY



USA.gov is the U.S. government's official web portal to all federal, state and local government web resources and services.